14-12-2022, 00:00:03,     17,    0.1,   -3.5,   0.00,   0.00, 1002.2,    0.3, -999.0
14-12-2022, 00:00:14,     24,    0.8,   -3.4,   0.00,   0.00, 1002.3,    0.0, -999.0
14-12-2022, 00:00:23,     26,    0.6,   -3.4,   0.00,   0.00, 1002.3,    0.0, -999.0
14-12-2022, 00:00:33,     26,    0.4,   -3.4,   0.00,   0.00, 1002.3,    0.2, -999.0
14-12-2022, 00:00:43,     26,    0.0,   -3.3,   0.00,   0.00, 1002.2,    0.1, -999.0
14-12-2022, 00:00:53,     26,    0.0,   -3.5,   0.00,   0.00, 1002.2,    0.1, -999.0
14-12-2022, 00:01:03,     26,    0.0,   -3.5,   0.00,   0.00, 1002.2,    0.1, -999.0
14-12-2022, 00:01:13,     26,    0.0,   -3.6,   0.00,   0.00, 1002.2,    0.0, -999.0
14-12-2022, 00:01:24,     26,    0.0,   -3.5,   0.00,   0.00, 1002.2,    0.2, -999.0
14-12-2022, 00:01:33,     26,    0.0,   -3.5,   0.00,   0.00, 1002.2,    0.1, -999.0
14-12-2022, 00:01:43,     26,    0.0,   -3.4,   0.00,   0.00, 1002.1,    0.2, -999.0
14-12-2022, 00:01:53,     26,    0.0,   -3.3,   0.00,   0.00, 1002.1,    0.1, -999.0
14-12-2022, 00:02:03,     26,    0.0,   -3.3,   0.00,   0.00, 1002.1,    0.1, -999.0
14-12-2022, 00:02:13,     26,    0.0,   -3.4,   0.00,   0.00, 1002.2,    0.1, -999.0
14-12-2022, 00:02:23,     26,    0.0,   -3.4,   0.00,   0.00, 1002.2,    0.0, -999.0
14-12-2022, 00:02:33,     26,    0.0,   -3.4,   0.00,   0.00, 1002.2,    0.1, -999.0
14-12-2022, 00:02:43,     26,    0.0,   -3.5,   0.00,   0.00, 1002.2,    0.2, -999.0
14-12-2022, 00:02:53,     26,    0.0,   -3.5,   0.00,   0.00, 1002.2,    0.1, -999.0
14-12-2022, 00:03:03,     26,    0.0,   -3.5,   0.00,   0.00, 1002.1,    0.1, -999.0
14-12-2022, 00:03:13,     26,    0.0,   -3.5,   0.00,   0.00, 1002.1,    0.0, -999.0
14-12-2022, 00:03:23,     25,    0.0,   -3.4,   0.00,   0.00, 1002.1,    0.1, -999.0
14-12-2022, 00:03:33,     26,    0.0,   -3.4,   0.00,   0.00, 1002.2,    0.1, -999.0
14-12-2022, 00:03:43,     26,    0.0,   -3.5,   0.00,   0.00, 1002.1,    0.1, -999.0
14-12-2022, 00:03:53,     26,    0.0,   -3.5,   0.00,   0.00, 1002.1,    0.0, -999.0
14-12-2022, 00:04:03,     26,    0.0,   -3.5,   0.00,   0.00, 1002.1,    0.2, -999.0
14-12-2022, 00:04:13,     26,    0.0,   -3.5,   0.00,   0.00, 1002.1,    0.1, -999.0
14-12-2022, 00:04:23,     26,    0.0,   -3.5,   0.00,   0.00, 1002.2,    0.1, -999.0
14-12-2022, 00:04:33,    311,    0.5,   -3.4,   0.00,   0.00, 1002.2,    0.1, -999.0
14-12-2022, 00:04:43,     11,    0.3,   -3.4,   0.00,   0.00, 1002.2,    0.1, -999.0
14-12-2022, 00:04:53,     25,    0.5,   -3.4,   0.00,   0.00, 1002.2,    0.0, -999.0
14-12-2022, 00:05:03,     29,    1.3,   -3.3,   0.00,   0.00, 1002.3,    0.3, -999.0
14-12-2022, 00:05:13,     23,    2.1,   -3.5,   0.00,   0.00, 1002.3,    0.0, -999.0
14-12-2022, 00:05:23,     37,    1.5,   -3.4,   0.00,   0.00, 1002.3,    0.0, -999.0
14-12-2022, 00:05:33,     37,    0.4,   -3.5,   0.00,   0.00, 1002.3,    0.0, -999.0
14-12-2022, 00:05:43,     38,    0.6,   -3.4,   0.00,   0.00, 1002.3,    0.1, -999.0
14-12-2022, 00:05:53,     35,    0.7,   -3.3,   0.00,   0.00, 1002.3,    0.2, -999.0
14-12-2022, 00:06:03,     35,    0.0,   -3.4,   0.00,   0.00, 1002.2,    0.1, -999.0
14-12-2022, 00:06:13,     31,    0.2,   -3.4,   0.00,   0.00, 1002.2,    0.1, -999.0
14-12-2022, 00:06:23,     31,    0.0,   -3.3,   0.00,   0.00, 1002.2,    0.2, -999.0
14-12-2022, 00:06:32,     32,    0.0,   -3.5,   0.00,   0.00, 1002.2,    0.2, -999.0
14-12-2022, 00:06:43,     32,    0.0,   -3.3,   0.00,   0.00, 1002.2,    0.0, -999.0
14-12-2022, 00:06:53,     32,    0.2,   -3.3,   0.00,   0.00, 1002.3,    0.1, -999.0
14-12-2022, 00:07:03,     35,    0.3,   -3.3,   0.00,   0.00, 1002.3,    0.1, -999.0
14-12-2022, 00:07:13,     35,    0.1,   -3.3,   0.00,   0.00, 1002.2,    0.1, -999.0
14-12-2022, 00:07:23,     35,    0.0,   -3.4,   0.00,   0.00, 1002.1,    0.1, -999.0
14-12-2022, 00:07:33,     35,    0.0,   -3.4,   0.00,   0.00, 1002.2,    0.1, -999.0
14-12-2022, 00:07:42,     35,    0.0,   -3.4,   0.00,   0.00, 1002.1,    0.1, -999.0
14-12-2022, 00:07:53,     35,    0.0,   -3.3,   0.00,   0.00, 1002.1,    0.1, -999.0
14-12-2022, 00:08:03,     35,    0.0,   -3.4,   0.00,   0.00, 1002.2,    0.0, -999.0
14-12-2022, 00:08:13,     35,    0.0,   -3.5,   0.00,   0.00, 1002.2,    0.1, -999.0
14-12-2022, 00:08:22,     35,    0.0,   -3.4,   0.00,   0.00, 1002.2,    0.1, -999.0
14-12-2022, 00:08:33,     20,    0.4,   -3.4,   0.00,   0.00, 1002.2,    0.1, -999.0
14-12-2022, 00:08:43,     27,    1.0,   -3.4,   0.00,   0.00, 1002.3,    0.2, -999.0
14-12-2022, 00:08:52,     27,    0.3,   -3.4,   0.00,   0.00, 1002.2,    0.1, -999.0
14-12-2022, 00:09:02,     27,    0.0,   -3.4,   0.00,   0.00, 1002.2,    0.0, -999.0
14-12-2022, 00:09:13,     27,    0.0,   -3.5,   0.00,   0.00, 1002.2,    0.2, -999.0
14-12-2022, 00:09:22,     27,    0.0,   -3.5,   0.00,   0.00, 1002.2,    0.1, -999.0
14-12-2022, 00:09:32,     27,    0.0,   -3.5,   0.00,   0.00, 1002.2,    0.0, -999.0
14-12-2022, 00:09:42,     27,    0.0,   -3.5,   0.00,   0.00, 1002.1,    0.0, -999.0
14-12-2022, 00:09:53,     27,    0.0,   -3.5,   0.00,   0.00, 1002.1,    0.1, -999.0
14-12-2022, 00:10:02,     27,    0.0,   -3.5,   0.00,   0.00, 1002.2,    0.1, -999.0
14-12-2022, 00:10:12,     27,    0.0,   -3.5,   0.00,   0.00, 1002.2,    0.0, -999.0
14-12-2022, 00:10:23,     27,    0.1,   -3.5,   0.00,   0.00, 1002.2,    0.2, -999.0
14-12-2022, 00:10:32,     43,    0.1,   -3.5,   0.00,   0.00, 1002.2,    0.1, -999.0
14-12-2022, 00:10:42,     43,    0.3,   -3.4,   0.00,   0.00, 1002.2,    0.1, -999.0
14-12-2022, 00:10:52,     12,    0.0,   -3.5,   0.00,   0.00, 1002.2,    0.0, -999.0
14-12-2022, 00:11:03,     15,    0.0,   -3.5,   0.00,   0.00, 1002.2,    0.1, -999.0
14-12-2022, 00:11:12,     51,    0.6,   -3.4,   0.00,   0.00, 1002.3,    0.3, -999.0
14-12-2022, 00:11:22,     32,    1.2,   -3.4,   0.00,   0.00, 1002.3,    0.1, -999.0
14-12-2022, 00:11:32,      3,    0.9,   -3.3,   0.00,   0.00, 1002.3,    0.2, -999.0
14-12-2022, 00:11:42,     50,    0.4,   -3.4,   0.00,   0.00, 1002.3,    0.2, -999.0
14-12-2022, 00:11:52,     33,    1.5,   -3.4,   0.00,   0.00, 1002.3,    0.1, -999.0
14-12-2022, 00:12:02,     46,    1.1,   -3.3,   0.00,   0.00, 1002.3,    0.2, -999.0
14-12-2022, 00:12:12,     33,    3.2,   -3.3,   0.00,   0.00, 1002.3,    0.1, -999.0
14-12-2022, 00:12:22,     34,    1.5,   -3.3,   0.00,   0.00, 1002.3,    0.1, -999.0
14-12-2022, 00:12:32,     50,    1.9,   -3.3,   0.00,   0.00, 1002.3,    0.1, -999.0
14-12-2022, 00:12:42,     50,    0.8,   -3.3,   0.00,   0.00, 1002.3,    0.1, -999.0
14-12-2022, 00:12:52,     45,    0.5,   -3.3,   0.00,   0.00, 1002.3,    0.2, -999.0
14-12-2022, 00:13:02,     46,    0.0,   -3.4,   0.00,   0.00, 1002.2,    0.1, -999.0
14-12-2022, 00:13:12,     46,    0.0,   -3.3,   0.00,   0.00, 1002.2,    0.1, -999.0
14-12-2022, 00:13:22,     42,    0.1,   -3.3,   0.00,   0.00, 1002.3,    0.1, -999.0
14-12-2022, 00:13:32,     42,    0.0,   -3.4,   0.00,   0.00, 1002.2,    0.1, -999.0
14-12-2022, 00:13:42,     55,    0.0,   -3.2,   0.00,   0.00, 1002.2,    0.2, -999.0
14-12-2022, 00:13:52,     64,    0.0,   -3.3,   0.00,   0.00, 1002.2,    0.2, -999.0
14-12-2022, 00:14:02,     67,    0.0,   -3.3,   0.00,   0.00, 1002.2,    0.2, -999.0
14-12-2022, 00:14:12,     66,    0.0,   -3.3,   0.00,   0.00, 1002.2,    0.1, -999.0
14-12-2022, 00:14:22,     66,    0.0,   -3.2,   0.00,   0.00, 1002.2,    0.2, -999.0
14-12-2022, 00:14:32,     12,    0.4,   -3.2,   0.00,   0.00, 1002.3,    0.1, -999.0
14-12-2022, 00:14:42,     13,    0.4,   -3.2,   0.00,   0.00, 1002.4,    0.1, -999.0
14-12-2022, 00:14:52,     12,    0.0,   -3.3,   0.00,   0.00, 1002.2,    0.2, -999.0
14-12-2022, 00:15:02,     12,    0.0,   -3.4,   0.00,   0.00, 1002.2,    0.2, -999.0
14-12-2022, 00:15:12,     12,    0.0,   -3.3,   0.00,   0.00, 1002.2,    0.1, -999.0
14-12-2022, 00:15:22,     12,    0.0,   -3.3,   0.00,   0.00, 1002.2,    0.1, -999.0
14-12-2022, 00:15:32,     13,    0.4,   -3.3,   0.00,   0.00, 1002.3,    0.0, -999.0
14-12-2022, 00:15:42,     13,    0.0,   -3.4,   0.00,   0.00, 1002.2,    0.1, -999.0
14-12-2022, 00:15:52,     13,    0.0,   -3.4,   0.00,   0.00, 1002.2,    0.1, -999.0
14-12-2022, 00:16:02,     12,    0.0,   -3.4,   0.00,   0.00, 1002.2,    0.1, -999.0
14-12-2022, 00:16:12,     46,    0.3,   -3.4,   0.00,   0.00, 1002.2,    0.2, -999.0
14-12-2022, 00:16:22,     65,    0.1,   -3.3,   0.00,   0.00, 1002.2,    0.1, -999.0
14-12-2022, 00:16:32,     70,    0.1,   -3.3,   0.00,   0.00, 1002.3,    0.0, -999.0
14-12-2022, 00:16:41,     70,    0.0,   -3.4,   0.00,   0.00, 1002.2,    0.0, -999.0
14-12-2022, 00:16:52,     69,    0.0,   -3.3,   0.00,   0.00, 1002.2,    0.1, -999.0
14-12-2022, 00:17:02,     70,    0.1,   -3.3,   0.00,   0.00, 1002.2,    0.3, -999.0
14-12-2022, 00:17:12,     47,    0.1,   -3.4,   0.00,   0.00, 1002.3,    0.1, -999.0
14-12-2022, 00:17:21,      0,    0.8,   -3.3,   0.00,   0.00, 1002.3,    0.1, -999.0
14-12-2022, 00:17:32,     26,    0.1,   -3.3,   0.00,   0.00, 1002.3,    0.1, -999.0
14-12-2022, 00:17:42,     27,    0.3,   -3.4,   0.00,   0.00, 1002.3,    0.1, -999.0
14-12-2022, 00:17:51,     54,    1.4,   -3.2,   0.00,   0.00, 1002.4,    0.1, -999.0
14-12-2022, 00:18:02,      9,    2.1,   -3.2,   0.00,   0.00, 1002.3,    0.1, -999.0
14-12-2022, 00:18:12,     12,    0.6,   -3.3,   0.00,   0.00, 1002.3,    0.1, -999.0
14-12-2022, 00:18:21,      2,    0.1,   -3.3,   0.00,   0.00, 1002.3,    0.1, -999.0
14-12-2022, 00:18:31,      3,    0.0,   -3.3,   0.00,   0.00, 1002.2,    0.1, -999.0
14-12-2022, 00:18:42,      7,    0.0,   -3.3,   0.00,   0.00, 1002.2,    0.1, -999.0
14-12-2022, 00:18:52,      7,    0.3,   -3.2,   0.00,   0.00, 1002.3,    0.1, -999.0
14-12-2022, 00:19:01,     23,    0.1,   -3.2,   0.00,   0.00, 1002.2,    0.0, -999.0
14-12-2022, 00:19:11,     11,    1.8,   -3.2,   0.00,   0.00, 1002.3,    0.2, -999.0
14-12-2022, 00:19:22,     29,    2.4,   -3.1,   0.00,   0.00, 1002.4,    0.2, -999.0
14-12-2022, 00:19:31,     10,    0.8,   -3.1,   0.00,   0.00, 1002.3,    0.0, -999.0
14-12-2022, 00:19:41,     22,    1.2,   -3.1,   0.00,   0.00, 1002.3,    0.0, -999.0
14-12-2022, 00:19:51,     11,    1.7,   -3.2,   0.00,   0.00, 1002.3,    0.0, -999.0
14-12-2022, 00:20:02,      2,    1.1,   -3.2,   0.00,   0.00, 1002.3,    0.0, -999.0
14-12-2022, 00:20:11,     16,    0.4,   -3.2,   0.00,   0.00, 1002.3,    0.1, -999.0
14-12-2022, 00:20:21,     15,    0.0,   -3.3,   0.00,   0.00, 1002.2,    0.1, -999.0
14-12-2022, 00:20:31,     72,    1.0,   -3.4,   0.00,   0.00, 1002.3,    0.1, -999.0
14-12-2022, 00:20:41,     71,    0.0,   -3.4,   0.00,   0.00, 1002.2,    0.1, -999.0
14-12-2022, 00:20:51,     71,    0.0,   -3.3,   0.00,   0.00, 1002.2,    0.2, -999.0
14-12-2022, 00:21:01,     72,    0.0,   -3.3,   0.00,   0.00, 1002.2,    0.2, -999.0
14-12-2022, 00:21:11,     44,    0.3,   -3.2,   0.00,   0.00, 1002.3,    0.2, -999.0
14-12-2022, 00:21:21,     16,    0.5,   -3.2,   0.00,   0.00, 1002.3,    0.1, -999.0
14-12-2022, 00:21:31,     22,    0.7,   -3.3,   0.00,   0.00, 1002.3,    0.1, -999.0
14-12-2022, 00:21:41,     22,    0.0,   -3.3,   0.00,   0.00, 1002.2,    0.2, -999.0
14-12-2022, 00:21:51,     22,    0.0,   -3.3,   0.00,   0.00, 1002.2,    0.2, -999.0
14-12-2022, 00:22:01,     22,    0.0,   -3.4,   0.00,   0.00, 1002.2,    0.1, -999.0
14-12-2022, 00:22:11,     22,    0.0,   -3.3,   0.00,   0.00, 1002.2,    0.1, -999.0
14-12-2022, 00:22:21,     21,    0.0,   -3.3,   0.00,   0.00, 1002.2,    0.0, -999.0
14-12-2022, 00:22:31,     40,    1.1,   -3.3,   0.00,   0.00, 1002.3,    0.1, -999.0
14-12-2022, 00:22:41,     40,    0.5,   -3.3,   0.00,   0.00, 1002.3,    0.1, -999.0
14-12-2022, 00:22:51,     39,    0.0,   -3.3,   0.00,   0.00, 1002.2,    0.1, -999.0
14-12-2022, 00:23:01,      0,    0.3,   -3.3,   0.00,   0.00, 1002.2,    0.1, -999.0
14-12-2022, 00:23:11,      0,    0.1,   -3.3,   0.00,   0.00, 1002.3,    0.1, -999.0
14-12-2022, 00:23:21,      0,    0.0,   -3.4,   0.00,   0.00, 1002.2,    0.1, -999.0
14-12-2022, 00:23:31,      0,    0.1,   -3.3,   0.00,   0.00, 1002.3,    0.1, -999.0
14-12-2022, 00:23:41,      2,    0.1,   -3.3,   0.00,   0.00, 1002.3,    0.1, -999.0
14-12-2022, 00:23:51,      8,    0.4,   -3.3,   0.00,   0.00, 1002.3,    0.1, -999.0
14-12-2022, 00:24:01,     11,    0.7,   -3.3,   0.00,   0.00, 1002.3,    0.0, -999.0
14-12-2022, 00:24:11,     13,    0.0,   -3.5,   0.00,   0.00, 1002.2,    0.1, -999.0
14-12-2022, 00:24:21,     33,    0.3,   -3.4,   0.00,   0.00, 1002.3,    0.1, -999.0
14-12-2022, 00:24:31,     33,    0.0,   -3.5,   0.00,   0.00, 1002.2,    0.0, -999.0
14-12-2022, 00:24:41,     32,    0.0,   -3.4,   0.00,   0.00, 1002.3,    0.3, -999.0
14-12-2022, 00:24:51,     32,    0.0,   -3.4,   0.00,   0.00, 1002.2,    0.1, -999.0
14-12-2022, 00:25:01,     33,    0.0,   -3.4,   0.00,   0.00, 1002.2,    0.0, -999.0
14-12-2022, 00:25:11,     32,    0.0,   -3.4,   0.00,   0.00, 1002.2,    0.1, -999.0
14-12-2022, 00:25:21,     32,    0.0,   -3.4,   0.00,   0.00, 1002.2,    0.2, -999.0
14-12-2022, 00:25:31,     32,    0.0,   -3.3,   0.00,   0.00, 1002.2,    0.2, -999.0
14-12-2022, 00:25:41,      0,    0.4,   -3.3,   0.00,   0.00, 1002.3,    0.2, -999.0
14-12-2022, 00:25:51,      0,    0.3,   -3.2,   0.00,   0.00, 1002.3,    0.1, -999.0
14-12-2022, 00:26:01,      0,    0.0,   -3.3,   0.00,   0.00, 1002.2,    0.1, -999.0
14-12-2022, 00:26:11,      0,    0.0,   -3.3,   0.00,   0.00, 1002.2,    0.1, -999.0
14-12-2022, 00:26:20,      0,    0.0,   -3.2,   0.00,   0.00, 1002.3,    0.1, -999.0
14-12-2022, 00:26:31,      0,    0.1,   -3.2,   0.00,   0.00, 1002.2,    0.2, -999.0
14-12-2022, 00:26:41,      0,    0.0,   -3.3,   0.00,   0.00, 1002.2,    0.2, -999.0
14-12-2022, 00:26:51,      0,    0.0,   -3.3,   0.00,   0.00, 1002.2,    0.2, -999.0
14-12-2022, 00:27:01,      0,    0.0,   -3.3,   0.00,   0.00, 1002.2,    0.1, -999.0
14-12-2022, 00:27:11,      0,    0.0,   -3.3,   0.00,   0.00, 1002.2,    0.2, -999.0
14-12-2022, 00:27:21,      0,    0.0,   -3.3,   0.00,   0.00, 1002.2,    0.0, -999.0
14-12-2022, 00:27:30,      0,    0.0,   -3.4,   0.00,   0.00, 1002.2,    0.0, -999.0
14-12-2022, 00:27:41,      0,    0.0,   -3.4,   0.00,   0.00, 1002.2,    0.2, -999.0
14-12-2022, 00:27:51,      0,    0.0,   -3.4,   0.00,   0.00, 1002.2,    0.1, -999.0
14-12-2022, 00:28:00,      0,    0.0,   -3.4,   0.00,   0.00, 1002.2,    0.1, -999.0
14-12-2022, 00:28:10,      0,    0.0,   -3.4,   0.00,   0.00, 1002.1,    0.1, -999.0
14-12-2022, 00:28:21,      0,    0.0,   -3.4,   0.00,   0.00, 1002.2,    0.1, -999.0
14-12-2022, 00:28:31,      0,    0.0,   -3.4,   0.00,   0.00, 1002.2,    0.2, -999.0
14-12-2022, 00:28:40,      0,    0.0,   -3.4,   0.00,   0.00, 1002.2,    0.2, -999.0
14-12-2022, 00:28:50,      2,    0.0,   -3.4,   0.00,   0.00, 1002.2,    0.3, -999.0
14-12-2022, 00:29:01,      2,    0.0,   -3.3,   0.00,   0.00, 1002.2,    0.2, -999.0
14-12-2022, 00:29:10,      2,    0.0,   -3.3,   0.00,   0.00, 1002.2,    0.1, -999.0
14-12-2022, 00:29:20,      2,    0.0,   -3.4,   0.00,   0.00, 1002.2,    0.1, -999.0
14-12-2022, 00:29:30,      2,    0.0,   -3.4,   0.00,   0.00, 1002.2,    0.2, -999.0
14-12-2022, 00:29:40,      3,    0.0,   -3.4,   0.00,   0.00, 1002.2,    0.2, -999.0
14-12-2022, 00:29:50,      2,    0.0,   -3.4,   0.00,   0.00, 1002.1,    0.1, -999.0
14-12-2022, 00:30:00,      2,    0.0,   -3.4,   0.00,   0.00, 1002.2,    0.2, -999.0
14-12-2022, 00:30:10,      2,    0.0,   -3.3,   0.00,   0.00, 1002.2,    0.2, -999.0
14-12-2022, 00:30:20,      2,    0.0,   -3.4,   0.00,   0.00, 1002.2,    0.1, -999.0
14-12-2022, 00:30:30,      2,    0.0,   -3.3,   0.00,   0.00, 1002.2,    0.2, -999.0
14-12-2022, 00:30:40,     11,    0.0,   -3.3,   0.00,   0.00, 1002.2,    0.3, -999.0
14-12-2022, 00:30:50,     11,    0.0,   -3.4,   0.00,   0.00, 1002.2,    0.1, -999.0
14-12-2022, 00:31:00,     12,    0.0,   -3.3,   0.00,   0.00, 1002.2,    0.2, -999.0
14-12-2022, 00:31:10,     16,    0.2,   -3.3,   0.00,   0.00, 1002.2,    0.1, -999.0
14-12-2022, 00:31:20,     15,    0.2,   -3.3,   0.00,   0.00, 1002.3,    0.2, -999.0
14-12-2022, 00:31:30,     16,    0.0,   -3.5,   0.00,   0.00, 1002.1,    0.1, -999.0
14-12-2022, 00:31:40,     15,    0.0,   -3.4,   0.00,   0.00, 1002.2,    0.0, -999.0
14-12-2022, 00:31:50,     24,    0.1,   -3.4,   0.00,   0.00, 1002.2,    0.1, -999.0
14-12-2022, 00:32:00,      0,    0.7,   -3.3,   0.00,   0.00, 1002.3,    0.1, -999.0
14-12-2022, 00:32:10,     44,    0.7,   -3.3,   0.00,   0.00, 1002.3,    0.2, -999.0
14-12-2022, 00:32:20,     31,    1.0,   -3.3,   0.00,   0.00, 1002.3,    0.1, -999.0
14-12-2022, 00:32:30,     47,    0.4,   -3.2,   0.00,   0.00, 1002.3,    0.1, -999.0
14-12-2022, 00:32:40,     47,    0.2,   -3.2,   0.00,   0.00, 1002.2,    0.2, -999.0
14-12-2022, 00:32:50,     47,    0.0,   -3.3,   0.00,   0.00, 1002.2,    0.1, -999.0
14-12-2022, 00:33:00,     46,    0.0,   -3.3,   0.00,   0.00, 1002.2,    0.0, -999.0
14-12-2022, 00:33:10,     46,    0.0,   -3.4,   0.00,   0.00, 1002.1,    0.1, -999.0
14-12-2022, 00:33:20,     47,    0.0,   -3.5,   0.00,   0.00, 1002.1,    0.1, -999.0
14-12-2022, 00:33:30,     47,    0.0,   -3.4,   0.00,   0.00, 1002.1,    0.1, -999.0
14-12-2022, 00:33:40,     47,    0.0,   -3.4,   0.00,   0.00, 1002.1,    0.1, -999.0
14-12-2022, 00:33:50,     46,    0.0,   -3.4,   0.00,   0.00, 1002.1,    0.0, -999.0
14-12-2022, 00:34:00,     46,    0.0,   -3.4,   0.00,   0.00, 1002.1,    0.1, -999.0
14-12-2022, 00:34:10,     47,    0.2,   -3.3,   0.00,   0.00, 1002.2,    0.2, -999.0
14-12-2022, 00:34:20,     46,    0.0,   -3.4,   0.00,   0.00, 1002.1,    0.1, -999.0
14-12-2022, 00:34:30,     47,    0.0,   -3.3,   0.00,   0.00, 1002.1,    0.2, -999.0
14-12-2022, 00:34:40,     46,    0.0,   -3.3,   0.00,   0.00, 1002.1,    0.0, -999.0
14-12-2022, 00:34:50,     46,    0.2,   -3.4,   0.00,   0.00, 1002.2,    0.1, -999.0
14-12-2022, 00:35:00,     35,    1.1,   -3.3,   0.00,   0.00, 1002.3,    0.3, -999.0
14-12-2022, 00:35:10,     32,    0.9,   -3.3,   0.00,   0.00, 1002.3,    0.0, -999.0
14-12-2022, 00:35:20,     30,    0.1,   -3.3,   0.00,   0.00, 1002.2,    0.3, -999.0
14-12-2022, 00:35:30,     24,    0.5,   -3.4,   0.00,   0.00, 1002.3,    0.0, -999.0
14-12-2022, 00:35:40,     24,    0.0,   -3.5,   0.00,   0.00, 1002.2,    0.1, -999.0
14-12-2022, 00:35:50,     24,    0.0,   -3.4,   0.00,   0.00, 1002.1,    0.2, -999.0
14-12-2022, 00:36:00,     25,    0.0,   -3.5,   0.00,   0.00, 1002.2,    0.0, -999.0
14-12-2022, 00:36:10,     24,    0.0,   -3.5,   0.00,   0.00, 1002.2,    0.0, -999.0
14-12-2022, 00:36:20,     24,    0.0,   -3.4,   0.00,   0.00, 1002.1,    0.2, -999.0
14-12-2022, 00:36:30,     24,    0.0,   -3.5,   0.00,   0.00, 1002.1,    0.0, -999.0
14-12-2022, 00:36:40,     24,    0.0,   -3.5,   0.00,   0.00, 1002.1,    0.0, -999.0
14-12-2022, 00:36:50,     24,    0.0,   -3.5,   0.00,   0.00, 1002.1,    0.0, -999.0
14-12-2022, 00:37:00,     24,    0.0,   -3.5,   0.00,   0.00, 1002.1,    0.1, -999.0
14-12-2022, 00:37:09,     24,    0.0,   -3.4,   0.00,   0.00, 1002.1,    0.1, -999.0
14-12-2022, 00:37:20,     24,    0.0,   -3.4,   0.00,   0.00, 1002.1,    0.0, -999.0
14-12-2022, 00:37:30,     24,    0.0,   -3.4,   0.00,   0.00, 1002.1,    0.1, -999.0
14-12-2022, 00:37:39,     24,    0.0,   -3.5,   0.00,   0.00, 1002.1,    0.1, -999.0
14-12-2022, 00:37:49,     24,    0.0,   -3.4,   0.00,   0.00, 1002.2,    0.0, -999.0
14-12-2022, 00:38:01,     24,    0.0,   -3.4,   0.00,   0.00, 1002.1,    0.2, -999.0
14-12-2022, 00:38:10,     24,    0.0,   -3.4,   0.00,   0.00, 1002.1,    0.1, -999.0
14-12-2022, 00:38:19,     24,    0.0,   -3.4,   0.00,   0.00, 1002.1,    0.2, -999.0
14-12-2022, 00:38:29,     24,    0.0,   -3.3,   0.00,   0.00, 1002.1,    0.2, -999.0
14-12-2022, 00:38:40,     24,    0.1,   -3.3,   0.00,   0.00, 1002.2,    0.2, -999.0
14-12-2022, 00:38:49,     24,    0.0,   -3.4,   0.00,   0.00, 1002.1,    0.0, -999.0
14-12-2022, 00:38:59,     24,    0.0,   -3.5,   0.00,   0.00, 1002.1,    0.2, -999.0
14-12-2022, 00:39:09,     24,    0.0,   -3.4,   0.00,   0.00, 1002.1,    0.2, -999.0
14-12-2022, 00:39:20,     24,    0.0,   -3.4,   0.00,   0.00, 1002.1,    0.2, -999.0
14-12-2022, 00:39:29,     24,    0.0,   -3.4,   0.00,   0.00, 1002.1,    0.3, -999.0
14-12-2022, 00:39:39,     24,    0.3,   -3.4,   0.00,   0.00, 1002.1,    0.2, -999.0
14-12-2022, 00:39:49,     40,    0.9,   -3.3,   0.00,   0.00, 1002.2,    0.2, -999.0
14-12-2022, 00:40:00,     40,    0.0,   -3.4,   0.00,   0.00, 1002.1,    0.1, -999.0
14-12-2022, 00:40:09,     41,    0.0,   -3.4,   0.00,   0.00, 1002.1,    0.2, -999.0
14-12-2022, 00:40:19,     40,    0.1,   -3.5,   0.00,   0.00, 1002.1,    0.1, -999.0
14-12-2022, 00:40:29,     40,    0.0,   -3.5,   0.00,   0.00, 1002.1,    0.1, -999.0
14-12-2022, 00:40:39,     40,    0.0,   -3.5,   0.00,   0.00, 1002.1,    0.0, -999.0
14-12-2022, 00:40:49,     40,    0.0,   -3.4,   0.00,   0.00, 1002.1,    0.1, -999.0
14-12-2022, 00:40:59,     40,    0.0,   -3.5,   0.00,   0.00, 1002.1,    0.1, -999.0
14-12-2022, 00:41:09,     40,    0.0,   -3.5,   0.00,   0.00, 1002.1,    0.1, -999.0
14-12-2022, 00:41:19,     40,    0.2,   -3.3,   0.00,   0.00, 1002.2,    0.1, -999.0
14-12-2022, 00:41:29,     40,    0.0,   -3.4,   0.00,   0.00, 1002.1,    0.1, -999.0
14-12-2022, 00:41:39,     40,    0.0,   -3.5,   0.00,   0.00, 1002.1,    0.2, -999.0
14-12-2022, 00:41:49,     40,    0.5,   -3.3,   0.00,   0.00, 1002.2,    0.1, -999.0
14-12-2022, 00:41:59,     40,    0.3,   -3.4,   0.00,   0.00, 1002.2,    0.1, -999.0
14-12-2022, 00:42:09,     40,    0.0,   -3.5,   0.00,   0.00, 1002.1,    0.2, -999.0
14-12-2022, 00:42:19,     40,    0.0,   -3.5,   0.00,   0.00, 1002.1,    0.1, -999.0
14-12-2022, 00:42:29,     40,    0.0,   -3.5,   0.00,   0.00, 1002.1,    0.0, -999.0
14-12-2022, 00:42:39,     40,    0.0,   -3.5,   0.00,   0.00, 1002.1,    0.0, -999.0
14-12-2022, 00:42:49,     40,    0.0,   -3.5,   0.00,   0.00, 1002.1,    0.0, -999.0
14-12-2022, 00:42:59,     40,    0.0,   -3.5,   0.00,   0.00, 1002.0,    0.0, -999.0
14-12-2022, 00:43:09,     40,    0.0,   -3.5,   0.00,   0.00, 1002.1,    0.2, -999.0
14-12-2022, 00:43:19,     40,    0.0,   -3.5,   0.00,   0.00, 1002.0,    0.1, -999.0
14-12-2022, 00:43:29,     40,    0.0,   -3.4,   0.00,   0.00, 1002.1,    0.1, -999.0
14-12-2022, 00:43:39,     40,    0.0,   -3.5,   0.00,   0.00, 1002.0,    0.1, -999.0
14-12-2022, 00:43:49,     40,    0.0,   -3.5,   0.00,   0.00, 1002.1,    0.1, -999.0
14-12-2022, 00:43:59,     40,    0.0,   -3.5,   0.00,   0.00, 1002.1,    0.0, -999.0
14-12-2022, 00:44:09,     40,    0.2,   -3.4,   0.00,   0.00, 1002.2,    0.1, -999.0
14-12-2022, 00:44:19,     40,    0.0,   -3.5,   0.00,   0.00, 1002.1,    0.2, -999.0
14-12-2022, 00:44:29,     40,    0.1,   -3.4,   0.00,   0.00, 1002.2,    0.3, -999.0
14-12-2022, 00:44:39,     40,    0.0,   -3.3,   0.00,   0.00, 1002.1,    0.1, -999.0
14-12-2022, 00:44:49,     40,    0.0,   -3.5,   0.00,   0.00, 1002.1,    0.0, -999.0
14-12-2022, 00:44:59,     40,    0.0,   -3.4,   0.00,   0.00, 1002.1,    0.1, -999.0
14-12-2022, 00:45:09,     40,    0.0,   -3.4,   0.00,   0.00, 1002.1,    0.2, -999.0
14-12-2022, 00:45:19,     40,    0.0,   -3.4,   0.00,   0.00, 1002.1,    0.1, -999.0
14-12-2022, 00:45:29,     40,    0.0,   -3.5,   0.00,   0.00, 1002.1,    0.1, -999.0
14-12-2022, 00:45:39,     40,    0.0,   -3.6,   0.00,   0.00, 1002.1,    0.0, -999.0
14-12-2022, 00:45:49,     40,    0.0,   -3.5,   0.00,   0.00, 1002.1,    0.0, -999.0
14-12-2022, 00:45:59,     40,    0.0,   -3.4,   0.00,   0.00, 1002.1,    0.2, -999.0
14-12-2022, 00:46:09,     40,    0.0,   -3.5,   0.00,   0.00, 1002.1,    0.1, -999.0
14-12-2022, 00:46:18,     40,    0.0,   -3.5,   0.00,   0.00, 1002.1,    0.1, -999.0
14-12-2022, 00:46:29,     40,    0.0,   -3.5,   0.00,   0.00, 1002.1,    0.1, -999.0
14-12-2022, 00:46:39,     40,    0.0,   -3.6,   0.00,   0.00, 1002.1,    0.1, -999.0
14-12-2022, 00:46:49,     40,    0.0,   -3.4,   0.00,   0.00, 1002.1,    0.1, -999.0